SCP
0 0 0 0 0 0 0 0 0 0 0 0 0 0 0 0 0 0 0 0 0 0 0 0 0 0 0 0 0 0 0 0 0 0 0 0 0 0 0 0 0 0 -0 -0
0 0 0 0 0 0 0 0 0 0 0 0 0 0 0 0 0 0 0 0 0 0 0 0 0 0 0 0 0 0 0 0 0 0 0 0 0 0 0 0 0 -0 -0 -0
0 0 0 0 0 0 0 0 0 0 0 0 0 0 0 0 0 0 0 0 0 0 0 0 0 0 0 0 0 0 0 0 0 0 0 0 0 0 0 0 0 0 0 0
0 0 0 0 0 0 0 0 0 0 0 0 0 0 0 0 0 0 0 0 0 0 0 0 0 0 0 0 0 0 0 0 0 0 0 0 0 0 0 0 0 0 0 0
0 0 0 0 0 0 0 0 0 0 0 0 0 0 0 0 0 0 0 0 0 0 0 0 0 0 0 0 0 0 0 0 0 0 0 0 0 0 0 0 0 0 0 0
0 0 0 0 0 0 0 0 0 0 0 0 0 0 0 0 0 0 0 0 0 0 0 0 0 0 0 0 0 0 0 0 0 0 0 0 0 0 0 0 0 0 0 0
0 0 0 0 0 0 0 0 0 0 0 0 0 0 0 0 0 0 0 0 0 0 0 0 0 0 0 0 0 0 0 0 0 0 0 0 0 0 0 0 0 0 0 0
0 0 0 0 0 0 0 0 0 0 0 0 0 0 0 0 0 0 0 0 0 0 0 0 0 0 0 0 0 0 0 0 0 0 0 0 0 0 0 0 0 0 0 0
0 0 0 0 0 0 0 0 0 0 0 0 0 0 0 0 0 0 0 0 0 0 0 0 0 0 0 0 0 0 0 0 0 0 0 0 0 0 0 0 0 0 0 0
0 0 0 0 0 0 0 0 0 0 0 0 0 0 0 0 0 0 0 0 0 0 0 0 0 0 0 0 0 0 0 0 0 0 0 0 0 0 0 0 0 0 0 0
0 0 0 0 0 0 0 0 0 0 0 0 0 0 0 0 0 0 0 0 0 0 0 0 0 0 0 0 0 0 0 0 0 0 0 0 0 0 0 0 0 0 0 0
0 0 0 0 0 0 0 0 0 0 0 0 0 0 0 0 0 0 0 0 0 0 0 0 0 0 0 0 0 0 0 0 0 0 0 0 0 0 0 0 0 0 0 0
0 0 0 0 0 0 0 0 0 0 0 0 0 0 0 0 0 0 0 0 0 0 0 0 0 0 0 0 0 0 0 0 0 0 0 0 0 0 0 0 0 0 0 0
0 0 0 0 0 0 0 0 0 0 0 0 0 0 0 0 0 0 0 0 0 0 0 0 0 0 0 0 0 0 0 0 0 -0 0 0 0 0 0 0 0 0 0 0
0 0 0 0 0 0 0 0 0 0 0 0 0 0 0 0 0 0 0 0 0 0 0 0 0 0 0 0 0 0 0 0 0 0 0 0 0 0 0 0 0 0 0 0
0 0 0 0 0 0 0 0 0 0 0 0 0 0 0 0 0 0 0 0 0 0 0 0 0 0 0 0 0 0 0 0 -0 -0 0 0 0 0 0 0 0 0 0 0
0 0 0 0 0 0 0 0 0 0 0 0 0 0 0 0 0 0 0 0 0 0 0 0 0 0 0 0 0 0 0 0 0 0 0 0 0 0 0 0 0 0 0 0
0 0 0 0 0 0 0 0 0 0 0 0 0 0 0 0 0 0 0 0 0 0 0 0 0 0 0 0 0 0 0 0 0 0 0 0 0 0 0 0 0 0 0 0
0 0 0 0 0 0 0 0 0 0 0 0 0 0 0 0 0 0 0 0 0 0 0 0 0 0 0 0 0 0 0 0 0 0 0 0 0 0 0 0 0 0 0 0
0 0 0 0 0 0 0 0 0 0 0 0 0 0 0 0 0 0 0 0 0 0 0 0 0 0 0 0 0 0 0 0 0 0 0 0 0 0 0 0 0 0 0 0
0 0 0 0 0 0 0 0 0 0 0 0 0 0 0 0 0 0 0 0 0 0 0 0 0 0 0 0 0 0 0 0 0 0 0 0 0 0 0 0 0 0 0 0
0 0 0 0 0 0 0 0 0 0 0 0 0 0 0 0 0 0 0 0 0 0 0 0 0 0 0 0 0 0 0 0 0 0 0 0 0 0 0 0 0 0 0 0
0 0 0 0 0 0 0 0 0 0 0 0 0 0 0 0 0 0 0 0 0 0 0 0 0 0 0 0 0 0 0 0 0 0 0 0 0 0 0 0 0 0 0 0
0 0 0 0 0 0 0 0 0 0 0 0 0 0 0 0 0 0 0 0 0 0 0 0 0 0 0 0 0 0 0 0 0 0 0 0 0 0 0 0 0 0 0 0
0 0 0 0 0 0 0 0 0 0 0 0 0 0 0 0 0 0 0 0 0 0 0 0 0 0 0 0 0 0 0 0 0 0 0 0 0 0 0 0 0 0 0 0
0 0 0 0 0 0 0 0 0 0 0 0 0 0 0 0 0 0 0 0 0 0 0 0 0 0 0 0 0 0 0 0 0 0 0 0 0 0 0 0 0 0 0 0
0 0 0 0 0 0 0 0 0 0 0 0 0 0 0 0 0 0 -0 0 0 0 0 0 0 0 -0 0 0 0 0 0 0 0 0 0 0 0 0 0 0 0 0 0
Wind_Speed_500mb
8 8 5 6 14 22 11 21 17 39 29 35 25 5 4 3 6 26 34 38 34 33 30 26 24 23 21 23 27 32 34 37 42 50 56 60 63 66 71 77 81 86 90 94
7 5 7 14 27 23 28 32 29 36 43 37 8 7 6 7 12 17 19 33 33 34 30 28 27 26 27 29 29 35 38 43 49 59 63 65 70 77 86 93 98 101 103 105
11 5 3 13 35 33 24 26 14 21 22 6 8 11 12 12 9 7 12 15 19 29 31 32 33 34 32 33 38 40 43 48 57 62 66 71 80 88 96 102 106 108 111 112
7 7 3 15 7 12 15 14 11 3 7 16 14 14 10 11 16 19 14 17 23 28 28 35 37 36 40 42 44 47 53 59 62 66 74 82 88 94 98 102 107 111 114 115
7 10 11 25 12 10 9 13 11 10 7 21 15 3 11 3 4 5 17 25 27 30 31 31 36 39 42 43 44 52 59 63 69 77 83 88 93 96 98 101 106 111 113 115
6 11 18 12 6 14 14 18 21 21 18 21 10 2 9 15 28 37 40 41 36 29 30 33 37 39 43 46 54 59 62 69 77 83 88 92 94 97 99 102 107 107 109 102
28 15 12 11 15 15 8 16 11 21 35 23 9 21 26 36 31 35 44 38 35 36 41 46 43 44 50 54 57 61 69 78 83 83 86 88 92 94 98 102 102 99 96 90
4 4 14 22 8 14 17 15 13 25 33 32 35 43 44 42 41 40 39 39 42 42 42 43 44 49 52 54 57 66 76 81 82 82 83 85 89 94 94 91 89 88 88 89
18 13 11 35 17 28 24 22 24 30 43 51 49 46 43 43 45 42 42 44 45 43 48 47 49 52 53 53 63 73 76 80 80 82 83 82 84 88 84 76 78 82 83 85
8 10 20 42 51 52 53 52 51 47 44 45 50 36 46 48 47 48 49 47 48 50 51 49 49 49 51 58 67 72 78 79 79 81 82 82 81 77 73 72 76 80 84 92
10 25 39 53 66 69 68 62 63 57 54 51 40 46 49 51 52 54 53 53 54 53 50 48 47 48 53 60 66 71 75 74 75 79 80 83 80 72 69 67 64 74 82 85
23 46 33 42 64 60 52 52 49 44 43 50 52 53 56 56 52 51 52 53 52 50 50 48 46 50 53 59 63 67 69 69 70 75 76 79 80 78 66 64 60 63 66 69
54 73 69 72 70 69 64 61 55 53 58 57 57 54 52 52 51 52 50 48 50 51 50 46 49 52 53 56 59 59 61 62 66 68 71 75 74 74 82 78 70 66 61 63
75 74 53 76 53 69 63 64 63 55 52 51 51 52 50 52 51 49 48 48 49 51 46 47 51 50 53 54 55 53 54 55 59 62 64 67 66 67 69 77 83 88 77 66
77 74 76 76 69 66 59 53 54 55 52 51 49 50 50 50 49 46 45 45 50 50 46 48 52 47 50 50 51 48 49 50 53 55 58 60 59 61 65 71 75 79 83 76
75 66 64 64 68 67 63 56 53 53 51 50 48 46 46 45 45 42 41 46 50 49 46 49 51 49 48 46 45 42 42 44 49 52 53 54 54 58 63 68 71 72 74 73
54 57 61 61 57 55 53 46 45 46 45 46 45 42 41 41 43 42 41 45 49 48 48 49 51 47 42 42 40 38 39 41 42 44 47 47 49 51 56 61 64 65 66 64
58 59 60 54 40 39 43 42 40 39 39 38 39 40 39 40 40 39 41 46 48 48 43 47 45 42 38 35 34 34 36 36 37 39 43 43 43 45 48 53 57 60 63 63
63 56 49 43 37 30 30 33 35 34 33 34 36 38 39 37 38 42 45 49 48 48 38 41 40 35 30 28 29 30 30 31 32 33 37 39 39 40 43 47 51 54 58 61
47 43 37 32 29 28 28 28 28 28 30 31 33 33 35 35 40 43 48 52 47 49 43 34 30 27 24 24 25 26 26 28 28 30 33 34 36 38 40 42 45 49 52 55
37 34 31 28 24 22 23 24 23 23 26 28 32 35 39 39 40 45 49 53 36 40 34 27 25 23 23 23 22 22 23 24 26 28 30 32 33 34 36 38 41 44 47 50
33 30 26 23 20 19 18 18 17 19 23 27 33 37 42 41 39 41 41 42 30 29 24 22 23 23 23 22 21 20 22 23 24 25 26 28 30 31 33 36 38 40 42 44
27 24 21 18 14 13 12 12 16 21 24 28 29 31 35 35 32 33 28 21 18 15 18 18 19 19 21 21 21 21 24 24 24 24 25 27 29 30 31 31 33 35 38 40
18 16 13 11 9 9 11 13 17 20 21 23 25 25 26 23 17 19 19 17 19 21 20 19 18 19 19 20 20 22 24 24 24 25 25 25 26 28 29 31 31 31 32 34
14 11 7 4 5 7 9 12 13 15 17 17 17 15 13 15 17 13 17 19 19 19 18 17 18 20 20 20 20 21 21 22 23 24 26 27 26 26 28 30 32 32 32 32
15 10 5 3 3 5 7 8 8 8 9 9 10 14 12 15 16 17 16 17 17 17 17 18 18 19 18 18 20 21 22 23 24 25 27 29 29 29 29 30 31 31 31 33
11 9 6 3 1 2 3 4 5 7 9 10 10 13 14 14 15 16 16 16 16 16 16 16 17 19 19 20 22 25 26 27 28 29 29 31 32 32 31 32 32 33 33 32
Wind_Direction_500mb
261 298 80 237 262 274 224 248 229 267 271 270 292 291 294 355 303 218 207 205 215 220 225 237 245 254 270 294 307 313 319 319 314 316 316 315 314 314 312 311 310 307 306 304
282 240 277 283 267 263 253 255 254 257 263 276 211 224 217 189 198 186 191 215 221 215 222 236 249 258 263 266 282 298 308 311 307 311 312 313 313 312 311 310 309 307 305 303
259 171 47 312 248 253 245 249 239 258 259 173 216 220 179 198 206 208 223 229 224 232 254 251 243 252 260 275 291 300 300 303 306 308 310 312 311 311 310 309 307 305 303 302
229 46 265 250 289 215 218 237 221 156 225 208 202 184 203 265 276 273 263 258 261 264 267 241 248 256 267 283 295 298 303 307 309 310 311 311 310 310 309 307 305 303 301 299
171 204 298 294 255 202 197 273 193 205 207 186 169 203 260 295 25 297 273 278 273 268 260 252 259 271 280 289 295 301 306 309 311 311 312 313 313 312 310 307 304 302 301 300
151 201 209 237 164 140 112 272 221 220 190 170 146 145 249 308 294 291 283 287 287 277 264 266 272 280 289 296 302 306 309 312 313 316 317 317 316 314 312 310 307 306 304 303
221 230 275 236 189 144 106 262 166 205 184 175 186 218 286 305 286 289 283 280 270 268 271 272 276 288 293 300 305 308 311 313 316 318 318 317 316 316 315 314 312 310 308 308
104 95 270 182 133 161 222 177 202 207 207 222 258 275 289 295 289 292 275 275 269 263 263 270 283 291 296 302 307 310 313 315 317 319 319 320 320 321 320 316 312 311 312 312
184 204 199 180 213 242 229 230 246 247 263 271 273 276 286 287 289 286 271 261 258 269 276 279 288 294 299 304 310 312 314 316 319 320 322 325 326 326 317 317 316 315 313 312
75 226 222 249 260 267 261 259 270 276 274 273 275 271 286 285 277 281 272 265 266 270 276 281 289 295 300 308 310 313 316 318 320 321 325 329 331 323 321 324 322 318 317 313
251 255 264 266 265 266 269 271 275 275 277 276 265 275 283 280 274 271 264 265 270 275 280 286 292 296 306 310 312 315 315 318 322 325 329 332 328 330 328 326 316 310 306 305
248 252 238 252 269 269 275 269 267 267 267 269 275 284 286 282 271 260 260 265 270 276 282 288 291 298 307 310 312 314 315 319 325 327 331 332 328 334 340 332 315 308 306 304
250 256 256 260 266 269 274 271 273 272 275 275 278 277 275 268 262 263 266 268 273 277 283 287 292 301 308 309 310 312 315 321 325 328 333 332 333 337 335 338 335 332 319 314
259 257 262 263 255 270 270 271 273 270 265 262 268 267 262 260 260 262 266 272 274 278 282 287 295 305 305 306 307 310 315 323 326 330 335 332 337 337 336 335 334 335 337 326
261 256 257 267 272 271 268 265 263 264 263 263 262 260 263 263 264 265 268 272 275 277 283 290 297 305 302 303 304 309 316 323 327 331 337 336 337 341 341 337 334 331 334 336
261 264 265 263 266 264 263 259 255 260 262 265 265 264 263 262 263 266 270 271 273 278 286 293 298 300 299 299 302 308 315 324 329 337 336 338 342 345 344 343 342 341 340 341
251 258 261 258 257 253 253 257 259 262 263 264 265 263 261 262 266 271 270 272 276 284 291 294 295 295 296 296 300 308 315 321 333 337 341 343 347 348 350 351 350 349 351 352
262 263 264 267 261 252 250 253 257 260 260 259 259 260 262 266 270 269 271 272 277 284 292 290 291 288 289 292 300 307 310 323 330 343 345 351 354 355 355 357 0 360 2 6
261 259 257 259 261 255 251 252 253 253 253 255 258 263 270 277 281 282 284 285 290 296 296 287 282 280 283 287 294 301 310 317 329 343 349 354 360 0 1 3 5 8 9 12
240 242 244 243 241 240 243 247 251 253 258 263 270 276 280 282 284 289 290 293 299 294 290 283 271 270 275 283 291 297 306 315 327 337 346 356 360 2 3 6 8 11 13 14
226 226 227 226 229 235 242 246 250 258 269 276 283 287 291 294 295 293 292 291 297 281 277 267 267 270 272 277 283 294 306 314 323 331 340 349 357 1 3 7 9 11 12 14
219 216 216 220 226 231 235 244 259 273 282 287 292 295 293 296 293 288 290 291 291 278 267 258 268 272 271 277 286 299 305 310 317 324 330 337 344 351 359 2 3 7 10 12
203 208 212 216 220 230 245 270 285 291 294 294 293 293 294 299 301 297 296 291 279 267 271 272 268 268 273 283 290 298 301 305 311 317 321 327 332 337 342 349 353 356 360 4
191 192 193 200 217 249 279 300 303 304 306 309 308 306 307 309 301 289 292 291 288 281 277 274 273 271 278 283 289 294 296 301 307 311 315 321 324 327 332 336 339 343 346 349
169 174 180 219 264 295 308 314 312 315 318 319 319 318 316 323 315 311 291 285 282 280 282 279 276 279 282 284 290 292 296 301 305 310 315 319 323 328 331 332 333 337 341 343
165 165 172 214 283 325 345 345 329 341 349 344 331 327 320 319 313 307 304 300 296 292 291 287 284 283 286 289 294 297 298 302 305 308 312 317 320 324 329 332 332 335 336 338
152 149 156 166 173 99 50 17 351 356 353 353 352 337 328 321 316 312 309 306 303 300 299 298 300 294 291 297 299 298 301 303 305 307 310 312 313 316 320 324 327 329 331 333
Wind_Speed_850mb
8 8 5 6 14 22 11 21 17 39 29 35 25 5 4 3 6 26 34 38 34 33 30 26 24 23 21 23 27 32 34 37 42 50 56 60 63 66 71 77 81 86 90 94
7 5 7 14 27 23 28 32 29 36 43 37 8 7 6 7 12 17 19 33 33 34 30 28 27 26 27 29 29 35 38 43 49 59 63 65 70 77 86 93 98 101 103 105
11 5 3 13 35 33 24 26 14 21 22 6 8 11 12 12 9 7 12 15 19 29 31 32 33 34 32 33 38 40 43 48 57 62 66 71 80 88 96 102 106 108 111 112
7 7 3 15 7 12 15 14 11 3 7 16 14 14 10 11 16 19 14 17 23 28 28 35 37 36 40 42 44 47 53 59 62 66 74 82 88 94 98 102 107 111 114 115
7 10 11 25 12 10 9 13 11 10 7 21 15 3 11 3 4 5 17 25 27 30 31 31 36 39 42 43 44 52 59 63 69 77 83 88 93 96 98 101 106 111 113 115
6 11 18 12 6 14 14 18 21 21 18 21 10 2 9 15 28 37 40 41 36 29 30 33 37 39 43 46 54 59 62 69 77 83 88 92 94 97 99 102 107 107 109 102
28 15 12 11 15 15 8 16 11 21 35 23 9 21 26 36 31 35 44 38 35 36 41 46 43 44 50 54 57 61 69 78 83 83 86 88 92 94 98 102 102 99 96 90
4 4 14 22 8 14 17 15 13 25 33 32 35 43 44 42 41 40 39 39 42 42 42 43 44 49 52 54 57 66 76 81 82 82 83 85 89 94 94 91 89 88 88 89
18 13 11 35 17 28 24 22 24 30 43 51 49 46 43 43 45 42 42 44 45 43 48 47 49 52 53 53 63 73 76 80 80 82 83 82 84 88 84 76 78 82 83 85
8 10 20 42 51 52 53 52 51 47 44 45 50 36 46 48 47 48 49 47 48 50 51 49 49 49 51 58 67 72 78 79 79 81 82 82 81 77 73 72 76 80 84 92
10 25 39 53 66 69 68 62 63 57 54 51 40 46 49 51 52 54 53 53 54 53 50 48 47 48 53 60 66 71 75 74 75 79 80 83 80 72 69 67 64 74 82 85
23 46 33 42 64 60 52 52 49 44 43 50 52 53 56 56 52 51 52 53 52 50 50 48 46 50 53 59 63 67 69 69 70 75 76 79 80 78 66 64 60 63 66 69
54 73 69 72 70 69 64 61 55 53 58 57 57 54 52 52 51 52 50 48 50 51 50 46 49 52 53 56 59 59 61 62 66 68 71 75 74 74 82 78 70 66 61 63
75 74 53 76 53 69 63 64 63 55 52 51 51 52 50 52 51 49 48 48 49 51 46 47 51 50 53 54 55 53 54 55 59 62 64 67 66 67 69 77 83 88 77 66
77 74 76 76 69 66 59 53 54 55 52 51 49 50 50 50 49 46 45 45 50 50 46 48 52 47 50 50 51 48 49 50 53 55 58 60 59 61 65 71 75 79 83 76
75 66 64 64 68 67 63 56 53 53 51 50 48 46 46 45 45 42 41 46 50 49 46 49 51 49 48 46 45 42 42 44 49 52 53 54 54 58 63 68 71 72 74 73
54 57 61 61 57 55 53 46 45 46 45 46 45 42 41 41 43 42 41 45 49 48 48 49 51 47 42 42 40 38 39 41 42 44 47 47 49 51 56 61 64 65 66 64
58 59 60 54 40 39 43 42 40 39 39 38 39 40 39 40 40 39 41 46 48 48 43 47 45 42 38 35 34 34 36 36 37 39 43 43 43 45 48 53 57 60 63 63
63 56 49 43 37 30 30 33 35 34 33 34 36 38 39 37 38 42 45 49 48 48 38 41 40 35 30 28 29 30 30 31 32 33 37 39 39 40 43 47 51 54 58 61
47 43 37 32 29 28 28 28 28 28 30 31 33 33 35 35 40 43 48 52 47 49 43 34 30 27 24 24 25 26 26 28 28 30 33 34 36 38 40 42 45 49 52 55
37 34 31 28 24 22 23 24 23 23 26 28 32 35 39 39 40 45 49 53 36 40 34 27 25 23 23 23 22 22 23 24 26 28 30 32 33 34 36 38 41 44 47 50
33 30 26 23 20 19 18 18 17 19 23 27 33 37 42 41 39 41 41 42 30 29 24 22 23 23 23 22 21 20 22 23 24 25 26 28 30 31 33 36 38 40 42 44
27 24 21 18 14 13 12 12 16 21 24 28 29 31 35 35 32 33 28 21 18 15 18 18 19 19 21 21 21 21 24 24 24 24 25 27 29 30 31 31 33 35 38 40
18 16 13 11 9 9 11 13 17 20 21 23 25 25 26 23 17 19 19 17 19 21 20 19 18 19 19 20 20 22 24 24 24 25 25 25 26 28 29 31 31 31 32 34
14 11 7 4 5 7 9 12 13 15 17 17 17 15 13 15 17 13 17 19 19 19 18 17 18 20 20 20 20 21 21 22 23 24 26 27 26 26 28 30 32 32 32 32
15 10 5 3 3 5 7 8 8 8 9 9 10 14 12 15 16 17 16 17 17 17 17 18 18 19 18 18 20 21 22 23 24 25 27 29 29 29 29 30 31 31 31 33
11 9 6 3 1 2 3 4 5 7 9 10 10 13 14 14 15 16 16 16 16 16 16 16 17 19 19 20 22 25 26 27 28 29 29 31 32 32 31 32 32 33 33 32
Wind_Direction_850mb
261 298 80 237 262 274 224 248 229 267 271 270 292 291 294 355 303 218 207 205 215 220 225 237 245 254 270 294 307 313 319 319 314 316 316 315 314 314 312 311 310 307 306 304
282 240 277 283 267 263 253 255 254 257 263 276 211 224 217 189 198 186 191 215 221 215 222 236 249 258 263 266 282 298 308 311 307 311 312 313 313 312 311 310 309 307 305 303
259 171 47 312 248 253 245 249 239 258 259 173 216 220 179 198 206 208 223 229 224 232 254 251 243 252 260 275 291 300 300 303 306 308 310 312 311 311 310 309 307 305 303 302
229 46 265 250 289 215 218 237 221 156 225 208 202 184 203 265 276 273 263 258 261 264 267 241 248 256 267 283 295 298 303 307 309 310 311 311 310 310 309 307 305 303 301 299
171 204 298 294 255 202 197 273 193 205 207 186 169 203 260 295 25 297 273 278 273 268 260 252 259 271 280 289 295 301 306 309 311 311 312 313 313 312 310 307 304 302 301 300
151 201 209 237 164 140 112 272 221 220 190 170 146 145 249 308 294 291 283 287 287 277 264 266 272 280 289 296 302 306 309 312 313 316 317 317 316 314 312 310 307 306 304 303
221 230 275 236 189 144 106 262 166 205 184 175 186 218 286 305 286 289 283 280 270 268 271 272 276 288 293 300 305 308 311 313 316 318 318 317 316 316 315 314 312 310 308 308
104 95 270 182 133 161 222 177 202 207 207 222 258 275 289 295 289 292 275 275 269 263 263 270 283 291 296 302 307 310 313 315 317 319 319 320 320 321 320 316 312 311 312 312
184 204 199 180 213 242 229 230 246 247 263 271 273 276 286 287 289 286 271 261 258 269 276 279 288 294 299 304 310 312 314 316 319 320 322 325 326 326 317 317 316 315 313 312
75 226 222 249 260 267 261 259 270 276 274 273 275 271 286 285 277 281 272 265 266 270 276 281 289 295 300 308 310 313 316 318 320 321 325 329 331 323 321 324 322 318 317 313
251 255 264 266 265 266 269 271 275 275 277 276 265 275 283 280 274 271 264 265 270 275 280 286 292 296 306 310 312 315 315 318 322 325 329 332 328 330 328 326 316 310 306 305
248 252 238 252 269 269 275 269 267 267 267 269 275 284 286 282 271 260 260 265 270 276 282 288 291 298 307 310 312 314 315 319 325 327 331 332 328 334 340 332 315 308 306 304
250 256 256 260 266 269 274 271 273 272 275 275 278 277 275 268 262 263 266 268 273 277 283 287 292 301 308 309 310 312 315 321 325 328 333 332 333 337 335 338 335 332 319 314
259 257 262 263 255 270 270 271 273 270 265 262 268 267 262 260 260 262 266 272 274 278 282 287 295 305 305 306 307 310 315 323 326 330 335 332 337 337 336 335 334 335 337 326
261 256 257 267 272 271 268 265 263 264 263 263 262 260 263 263 264 265 268 272 275 277 283 290 297 305 302 303 304 309 316 323 327 331 337 336 337 341 341 337 334 331 334 336
261 264 265 263 266 264 263 259 255 260 262 265 265 264 263 262 263 266 270 271 273 278 286 293 298 300 299 299 302 308 315 324 329 337 336 338 342 345 344 343 342 341 340 341
251 258 261 258 257 253 253 257 259 262 263 264 265 263 261 262 266 271 270 272 276 284 291 294 295 295 296 296 300 308 315 321 333 337 341 343 347 348 350 351 350 349 351 352
262 263 264 267 261 252 250 253 257 260 260 259 259 260 262 266 270 269 271 272 277 284 292 290 291 288 289 292 300 307 310 323 330 343 345 351 354 355 355 357 0 360 2 6
261 259 257 259 261 255 251 252 253 253 253 255 258 263 270 277 281 282 284 285 290 296 296 287 282 280 283 287 294 301 310 317 329 343 349 354 360 0 1 3 5 8 9 12
240 242 244 243 241 240 243 247 251 253 258 263 270 276 280 282 284 289 290 293 299 294 290 283 271 270 275 283 291 297 306 315 327 337 346 356 360 2 3 6 8 11 13 14
226 226 227 226 229 235 242 246 250 258 269 276 283 287 291 294 295 293 292 291 297 281 277 267 267 270 272 277 283 294 306 314 323 331 340 349 357 1 3 7 9 11 12 14
219 216 216 220 226 231 235 244 259 273 282 287 292 295 293 296 293 288 290 291 291 278 267 258 268 272 271 277 286 299 305 310 317 324 330 337 344 351 359 2 3 7 10 12
203 208 212 216 220 230 245 270 285 291 294 294 293 293 294 299 301 297 296 291 279 267 271 272 268 268 273 283 290 298 301 305 311 317 321 327 332 337 342 349 353 356 360 4
191 192 193 200 217 249 279 300 303 304 306 309 308 306 307 309 301 289 292 291 288 281 277 274 273 271 278 283 289 294 296 301 307 311 315 321 324 327 332 336 339 343 346 349
169 174 180 219 264 295 308 314 312 315 318 319 319 318 316 323 315 311 291 285 282 280 282 279 276 279 282 284 290 292 296 301 305 310 315 319 323 328 331 332 333 337 341 343
165 165 172 214 283 325 345 345 329 341 349 344 331 327 320 319 313 307 304 300 296 292 291 287 284 283 286 289 294 297 298 302 305 308 312 317 320 324 329 332 332 335 336 338
152 149 156 166 173 99 50 17 351 356 353 353 352 337 328 321 316 312 309 306 303 300 299 298 300 294 291 297 299 298 301 303 305 307 310 312 313 316 320 324 327 329 331 333